Time,TemperatureF,DewpointF,PressureIn,WindDirection,WindDirectionDegrees,WindSpeedMPH,WindSpeedGustMPH,Humidity,HourlyPrecipIn,Conditions,Clouds,dailyrainin,SoftwareType,DateUTC
2013-09-21 00:04:00,57.2,1.1,29.49,ENE,68,1.1,2.2,1,0.00,,,0.00,WUHU216HW,2013-09-21 07:04:00,
2013-09-21 00:09:00,57.2,1.1,29.49,East,90,1.1,1.1,1,0.00,,,0.00,WUHU216HW,2013-09-21 07:09:00,
2013-09-21 00:14:00,57.2,1.1,29.49,SSE,158,0.4,1.8,1,0.00,,,0.00,WUHU216HW,2013-09-21 07:14:00,
2013-09-21 00:19:00,57.4,1.3,29.49,ESE,113,2.5,2.5,1,0.00,,,0.00,WUHU216HW,2013-09-21 07:19:00,
2013-09-21 00:24:00,57.4,1.3,29.49,SSE,158,0.2,2.5,1,0.00,,,0.00,WUHU216HW,2013-09-21 07:24:00,
2013-09-21 00:29:00,57.4,1.3,29.49,ENE,68,0.2,1.8,1,0.00,,,0.00,WUHU216HW,2013-09-21 07:29:00,
2013-09-21 00:34:00,57.4,1.3,29.49,SSE,158,0.0,1.8,1,0.00,,,0.00,WUHU216HW,2013-09-21 07:34:00,
2013-09-21 00:39:00,57.4,1.3,29.49,WNW,293,1.6,1.6,1,0.00,,,0.00,WUHU216HW,2013-09-21 07:39:00,
2013-09-21 00:44:00,57.6,1.4,29.49,North,0,0.4,1.6,1,0.00,,,0.00,WUHU216HW,2013-09-21 07:44:00,
2013-09-21 00:49:00,57.6,1.4,29.49,NNE,23,0.0,0.7,1,0.00,,,0.00,WUHU216HW,2013-09-21 07:49:00,
2013-09-21 00:54:00,57.4,1.3,29.49,NW,315,0.0,0.7,1,0.00,,,0.00,WUHU216HW,2013-09-21 07:54:00,
2013-09-21 00:59:00,57.4,1.3,29.49,North,0,0.0,0.0,1,0.00,,,0.00,WUHU216HW,2013-09-21 07:59:00,
2013-09-21 01:04:00,57.2,1.1,29.49,North,0,0.0,0.0,1,0.00,,,0.00,WUHU216HW,2013-09-21 08:04:00,
2013-09-21 01:09:00,57.2,1.1,29.49,North,0,0.0,0.0,1,0.00,,,0.00,WUHU216HW,2013-09-21 08:09:00,
2013-09-21 01:14:00,57.2,1.1,29.49,North,0,0.0,0.0,1,0.00,,,0.00,WUHU216HW,2013-09-21 08:14:00,
2013-09-21 01:19:00,57.2,1.1,29.49,North,0,0.0,0.0,1,0.00,,,0.00,WUHU216HW,2013-09-21 08:19:00,
2013-09-21 01:24:00,57.2,1.1,29.49,WNW,293,0.0,0.0,1,0.00,,,0.00,WUHU216HW,2013-09-21 08:24:00,
2013-09-21 01:29:00,57.2,1.1,29.49,WNW,293,0.0,0.0,1,0.00,,,0.00,WUHU216HW,2013-09-21 08:29:00,
2013-09-21 01:34:00,57.2,1.1,29.49,West,270,0.2,0.2,1,0.00,,,0.00,WUHU216HW,2013-09-21 08:34:00,
2013-09-21 01:39:00,57.4,1.3,29.49,NNW,338,0.0,0.2,1,0.00,,,0.00,WUHU216HW,2013-09-21 08:39:00,
2013-09-21 01:44:00,57.4,1.3,29.48,North,0,0.0,0.4,1,0.00,,,0.00,WUHU216HW,2013-09-21 08:44:00,
2013-09-21 01:49:00,57.2,1.1,29.49,North,0,0.0,0.4,1,0.00,,,0.00,WUHU216HW,2013-09-21 08:49:00,
2013-09-21 01:54:00,57.2,1.1,29.49,North,0,0.0,0.0,1,0.00,,,0.00,WUHU216HW,2013-09-21 08:54:00,
2013-09-21 01:59:00,57.2,1.1,29.49,North,0,0.0,0.0,1,0.00,,,0.00,WUHU216HW,2013-09-21 08:59:00,
2013-09-21 02:04:00,57.4,1.3,29.49,ENE,68,0.0,0.0,1,0.00,,,0.00,WUHU216HW,2013-09-21 09:04:00,
2013-09-21 02:09:00,57.4,1.3,29.49,SW,225,0.0,0.4,1,0.00,,,0.00,WUHU216HW,2013-09-21 09:09:00,
2013-09-21 02:14:00,57.4,1.3,29.49,ENE,68,0.0,0.7,1,0.00,,,0.00,WUHU216HW,2013-09-21 09:14:00,
2013-09-21 02:19:00,57.4,1.3,29.49,ENE,68,0.0,0.7,1,0.00,,,0.00,WUHU216HW,2013-09-21 09:19:00,
2013-09-21 02:24:00,57.4,1.3,29.49,ENE,68,0.0,0.0,1,0.00,,,0.00,WUHU216HW,2013-09-21 09:24:00,
2013-09-21 02:29:00,57.2,1.1,29.49,ENE,68,0.0,0.0,1,0.00,,,0.00,WUHU216HW,2013-09-21 09:29:00,
2013-09-21 02:34:00,57.2,1.1,29.49,ENE,68,0.0,0.0,1,0.00,,,0.00,WUHU216HW,2013-09-21 09:34:00,
2013-09-21 02:39:00,57.2,1.1,29.49,East,90,0.4,0.4,1,0.00,,,0.00,WUHU216HW,2013-09-21 09:39:00,
2013-09-21 02:44:00,57.2,1.1,29.49,SE,135,0.7,1.1,1,0.00,,,0.00,WUHU216HW,2013-09-21 09:44:00,
2013-09-21 02:49:00,57.2,1.1,29.48,ESE,113,0.2,1.1,1,0.00,,,0.00,WUHU216HW,2013-09-21 09:49:00,
2013-09-21 02:54:00,57.2,1.1,29.48,East,90,0.0,1.1,1,0.00,,,0.00,WUHU216HW,2013-09-21 09:54:00,
2013-09-21 02:59:00,57.1,1.0,29.48,South,180,0.4,0.4,1,0.00,,,0.00,WUHU216HW,2013-09-21 09:59:00,
2013-09-21 03:04:00,56.9,0.8,29.49,South,180,0.4,0.4,1,0.00,,,0.00,WUHU216HW,2013-09-21 10:04:00,
2013-09-21 03:09:00,57.1,1.0,29.48,South,180,0.0,0.4,1,0.00,,,0.00,WUHU216HW,2013-09-21 10:09:00,
2013-09-21 03:14:00,57.1,1.0,29.49,South,180,0.0,0.4,1,0.00,,,0.00,WUHU216HW,2013-09-21 10:14:00,
2013-09-21 03:19:00,57.2,1.1,29.49,South,180,0.0,0.0,1,0.00,,,0.00,WUHU216HW,2013-09-21 10:19:00,
2013-09-21 03:24:00,57.2,1.1,29.49,South,180,0.0,0.0,1,0.00,,,0.00,WUHU216HW,2013-09-21 10:24:00,
2013-09-21 03:29:00,57.2,1.1,29.49,South,180,0.0,0.0,1,0.00,,,0.00,WUHU216HW,2013-09-21 10:29:00,
2013-09-21 03:34:00,57.2,1.1,29.49,South,180,0.0,0.0,1,0.00,,,0.00,WUHU216HW,2013-09-21 10:34:00,
2013-09-21 03:39:00,57.2,1.1,29.49,South,180,0.0,0.0,1,0.00,,,0.00,WUHU216HW,2013-09-21 10:39:00,
2013-09-21 03:44:00,57.2,1.1,29.49,South,180,0.0,0.0,1,0.00,,,0.00,WUHU216HW,2013-09-21 10:44:00,
2013-09-21 03:49:00,57.2,1.1,29.49,South,180,0.0,0.0,1,0.00,,,0.00,WUHU216HW,2013-09-21 10:49:00,
2013-09-21 03:54:00,57.2,1.1,29.49,South,180,0.0,0.0,1,0.00,,,0.00,WUHU216HW,2013-09-21 10:54:00,
2013-09-21 03:59:00,57.2,1.1,29.49,SE,135,1.1,1.1,1,0.00,,,0.00,WUHU216HW,2013-09-21 10:59:00,
2013-09-21 04:04:00,57.2,1.1,29.49,ESE,113,0.0,1.1,1,0.00,,,0.00,WUHU216HW,2013-09-21 11:04:00,
2013-09-21 04:09:00,57.4,1.3,29.49,ESE,113,0.0,0.4,1,0.00,,,0.00,WUHU216HW,2013-09-21 11:09:00,
2013-09-21 04:14:00,57.4,1.3,29.49,ESE,113,0.0,1.1,1,0.00,,,0.00,WUHU216HW,2013-09-21 11:14:00,
2013-09-21 04:19:00,57.4,1.3,29.49,East,90,0.0,1.1,1,0.00,,,0.00,WUHU216HW,2013-09-21 11:19:00,
2013-09-21 04:24:00,57.6,1.4,29.50,West,270,0.0,0.9,1,0.00,,,0.00,WUHU216HW,2013-09-21 11:24:00,
2013-09-21 04:29:00,57.6,1.4,29.49,WSW,248,0.0,0.4,1,0.00,,,0.00,WUHU216HW,2013-09-21 11:29:00,
2013-09-21 04:34:00,57.6,1.4,29.49,WSW,248,0.0,0.4,1,0.00,,,0.00,WUHU216HW,2013-09-21 11:34:00,
2013-09-21 04:39:00,57.6,1.4,29.50,WSW,248,0.0,0.4,1,0.00,,,0.00,WUHU216HW,2013-09-21 11:39:00,
2013-09-21 04:44:00,57.6,1.4,29.50,WSW,248,0.0,0.4,1,0.00,,,0.00,WUHU216HW,2013-09-21 11:44:00,
2013-09-21 04:49:00,57.6,1.4,29.50,WSW,248,0.0,0.0,1,0.00,,,0.00,WUHU216HW,2013-09-21 11:49:00,
2013-09-21 04:54:00,57.6,1.4,29.50,ESE,113,0.4,0.7,1,0.00,,,0.00,WUHU216HW,2013-09-21 11:54:00,
2013-09-21 04:59:00,57.6,1.4,29.50,ESE,113,0.0,0.7,1,0.00,,,0.00,WUHU216HW,2013-09-21 11:59:00,
2013-09-21 05:04:00,57.6,1.4,29.50,East,90,1.1,1.1,1,0.00,,,0.00,WUHU216HW,2013-09-21 12:04:00,
2013-09-21 05:09:00,57.6,1.4,29.50,ESE,113,0.0,1.1,1,0.00,,,0.00,WUHU216HW,2013-09-21 12:09:00,
2013-09-21 05:14:00,57.4,1.3,29.50,ESE,113,0.0,0.4,1,0.00,,,0.00,WUHU216HW,2013-09-21 12:14:00,
2013-09-21 05:19:00,57.4,1.3,29.50,ESE,113,0.0,0.0,1,0.00,,,0.00,WUHU216HW,2013-09-21 12:19:00,
2013-09-21 05:24:00,57.2,1.1,29.50,ENE,68,0.0,0.0,1,0.00,,,0.00,WUHU216HW,2013-09-21 12:24:00,
2013-09-21 05:29:00,57.2,1.1,29.50,ENE,68,0.0,0.0,1,0.00,,,0.00,WUHU216HW,2013-09-21 12:29:00,
2013-09-21 05:34:00,57.1,1.0,29.50,ENE,68,0.0,0.0,1,0.00,,,0.00,WUHU216HW,2013-09-21 12:34:00,
2013-09-21 05:39:00,56.9,0.8,29.50,ENE,68,0.0,0.0,1,0.00,,,0.00,WUHU216HW,2013-09-21 12:39:00,
2013-09-21 05:44:00,57.1,1.0,29.50,ENE,68,0.0,0.0,1,0.00,,,0.00,WUHU216HW,2013-09-21 12:44:00,
2013-09-21 05:49:00,57.1,1.0,29.50,ENE,68,0.0,0.0,1,0.00,,,0.00,WUHU216HW,2013-09-21 12:49:00,
2013-09-21 05:54:00,57.1,1.0,29.49,ENE,68,0.0,0.0,1,0.00,,,0.00,WUHU216HW,2013-09-21 12:54:00,
2013-09-21 05:59:00,57.1,1.0,29.50,ENE,68,0.0,0.0,1,0.00,,,0.00,WUHU216HW,2013-09-21 12:59:00,
2013-09-21 06:04:00,57.1,1.0,29.50,ENE,68,0.0,0.0,1,0.00,,,0.00,WUHU216HW,2013-09-21 13:04:00,
2013-09-21 06:09:00,57.1,1.0,29.50,ENE,68,0.0,0.0,1,0.00,,,0.00,WUHU216HW,2013-09-21 13:09:00,
2013-09-21 06:14:00,57.1,1.0,29.50,ENE,68,0.0,0.0,1,0.00,,,0.00,WUHU216HW,2013-09-21 13:14:00,
2013-09-21 06:19:00,57.1,1.0,29.50,NW,315,0.2,0.7,1,0.00,,,0.00,WUHU216HW,2013-09-21 13:19:00,
2013-09-21 06:24:00,57.2,1.1,29.50,NNE,23,0.0,0.7,1,0.00,,,0.00,WUHU216HW,2013-09-21 13:24:00,
2013-09-21 06:29:00,57.2,1.1,29.50,East,90,0.0,0.0,1,0.00,,,0.00,WUHU216HW,2013-09-21 13:29:00,
2013-09-21 06:34:00,57.2,1.1,29.50,WSW,248,0.7,1.1,1,0.00,,,0.00,WUHU216HW,2013-09-21 13:34:00,
2013-09-21 06:39:00,57.1,1.0,29.51,ESE,113,0.4,1.1,1,0.00,,,0.00,WUHU216HW,2013-09-21 13:39:00,
2013-09-21 06:44:00,56.9,0.8,29.51,East,90,0.4,0.4,1,0.00,,,0.00,WUHU216HW,2013-09-21 13:44:00,
2013-09-21 06:49:00,56.7,0.7,29.51,ENE,68,0.4,1.1,1,0.00,,,0.00,WUHU216HW,2013-09-21 13:49:00,
2013-09-21 06:54:00,56.7,0.7,29.51,ENE,68,0.0,1.1,1,0.00,,,0.00,WUHU216HW,2013-09-21 13:54:00,
2013-09-21 07:00:00,56.7,0.7,29.51,ENE,68,0.4,0.9,1,0.00,,,0.00,WUHU216HW,2013-09-21 14:00:00,
2013-09-21 07:05:00,56.9,0.8,29.52,ENE,68,1.1,1.1,1,0.00,,,0.00,WUHU216HW,2013-09-21 14:05:00,
2013-09-21 07:10:00,56.9,0.8,29.52,East,90,0.7,1.1,1,0.00,,,0.00,WUHU216HW,2013-09-21 14:10:00,
2013-09-21 07:15:00,57.1,1.0,29.52,East,90,0.0,1.1,1,0.00,,,0.00,WUHU216HW,2013-09-21 14:15:00,
2013-09-21 07:20:00,57.1,1.0,29.52,ESE,113,0.0,0.4,1,0.00,,,0.00,WUHU216HW,2013-09-21 14:20:00,
2013-09-21 07:25:00,57.1,1.0,29.52,ESE,113,0.0,0.0,1,0.00,,,0.00,WUHU216HW,2013-09-21 14:25:00,
2013-09-21 07:30:00,57.1,1.0,29.52,ESE,113,0.0,0.0,1,0.00,,,0.00,WUHU216HW,2013-09-21 14:30:00,
2013-09-21 07:35:00,57.1,1.0,29.52,ESE,113,0.0,0.0,1,0.00,,,0.00,WUHU216HW,2013-09-21 14:35:00,
2013-09-21 07:40:00,56.9,0.8,29.52,ESE,113,0.9,1.1,1,0.00,,,0.00,WUHU216HW,2013-09-21 14:40:00,
2013-09-21 07:45:00,56.9,0.8,29.52,East,90,0.4,1.1,1,0.00,,,0.00,WUHU216HW,2013-09-21 14:45:00,
2013-09-21 07:50:00,56.5,0.5,29.52,East,90,0.0,0.9,1,0.00,,,0.00,WUHU216HW,2013-09-21 14:50:00,
2013-09-21 07:55:00,56.5,0.5,29.52,East,90,0.0,0.4,1,0.00,,,0.00,WUHU216HW,2013-09-21 14:55:00,
2013-09-21 08:00:00,56.5,0.5,29.52,East,90,0.0,0.4,1,0.00,,,0.00,WUHU216HW,2013-09-21 15:00:00,
2013-09-21 08:05:00,56.7,0.7,29.52,East,90,0.0,0.4,1,0.00,,,0.00,WUHU216HW,2013-09-21 15:05:00,
2013-09-21 08:10:00,56.5,0.5,29.52,East,90,0.0,0.0,1,0.00,,,0.00,WUHU216HW,2013-09-21 15:10:00,
2013-09-21 08:12:00,56.7,0.7,29.53,East,90,0.0,0.0,1,0.00,,,0.00,WUHU216HW,2013-09-21 15:12:00,
2013-09-21 08:15:00,56.7,0.7,29.53,East,90,0.0,0.0,1,0.00,,,0.00,WUHU216HW,2013-09-21 15:15:00,
2013-09-21 08:20:00,56.7,0.7,29.53,East,90,0.0,0.0,1,0.00,,,0.00,WUHU216HW,2013-09-21 15:20:00,
2013-09-21 08:42:00,57.6,1.4,29.53,East,90,0.0,0.0,1,0.00,,,0.00,WUHU216HW,2013-09-21 15:42:00,
2013-09-21 08:47:00,57.8,1.5,29.52,East,90,0.0,0.0,1,0.00,,,0.00,WUHU216HW,2013-09-21 15:47:00,
2013-09-21 08:52:00,58.0,1.6,29.52,East,90,0.0,0.0,1,0.00,,,0.00,WUHU216HW,2013-09-21 15:52:00,
2013-09-21 08:57:00,58.0,1.6,29.53,ESE,113,0.0,0.0,1,0.00,,,0.00,WUHU216HW,2013-09-21 15:57:00,
2013-09-21 09:02:00,58.7,2.3,29.53,SSW,203,0.0,0.0,1,0.00,,,0.00,WUHU216HW,2013-09-21 16:02:00,
2013-09-21 09:07:00,59.0,2.5,29.53,ESE,113,0.2,0.2,1,0.00,,,0.00,WUHU216HW,2013-09-21 16:07:00,
2013-09-21 09:12:00,59.8,3.1,29.53,South,180,0.0,0.2,1,0.00,,,0.00,WUHU216HW,2013-09-21 16:12:00,
2013-09-21 09:17:00,60.5,3.7,29.53,South,180,0.0,0.2,1,0.00,,,0.00,WUHU216HW,2013-09-21 16:17:00,
2013-09-21 09:22:00,60.8,4.0,29.53,SSW,203,0.0,0.7,1,0.00,,,0.00,WUHU216HW,2013-09-21 16:22:00,
2013-09-21 09:27:00,61.6,4.5,29.53,SSE,158,1.1,1.1,1,0.00,,,0.00,WUHU216HW,2013-09-21 16:27:00,
2013-09-21 09:32:00,61.9,4.9,29.53,SW,225,0.2,2.5,1,0.00,,,0.00,WUHU216HW,2013-09-21 16:32:00,
2013-09-21 09:37:00,61.7,4.7,29.53,East,90,0.2,2.5,1,0.00,,,0.00,WUHU216HW,2013-09-21 16:37:00,
2013-09-21 09:42:00,61.9,4.9,29.53,SE,135,1.1,1.1,1,0.00,,,0.00,WUHU216HW,2013-09-21 16:42:00,
2013-09-21 09:47:00,61.9,4.9,29.53,ESE,113,0.7,1.3,1,0.00,,,0.00,WUHU216HW,2013-09-21 16:47:00,
2013-09-21 09:52:00,62.6,5.4,29.54,ESE,113,0.7,1.3,1,0.00,,,0.00,WUHU216HW,2013-09-21 16:52:00,
2013-09-21 09:57:00,62.3,5.1,29.54,SSE,158,0.2,2.5,1,0.00,,,0.00,WUHU216HW,2013-09-21 16:57:00,
2013-09-21 10:02:00,61.9,4.9,29.54,East,90,0.0,2.5,1,0.00,,,0.00,WUHU216HW,2013-09-21 17:02:00,
2013-09-21 10:07:00,61.9,4.9,29.54,SW,225,0.0,1.3,1,0.00,,,0.00,WUHU216HW,2013-09-21 17:07:00,
2013-09-21 10:12:00,62.1,5.0,29.54,WSW,248,1.3,1.3,1,0.00,,,0.00,WUHU216HW,2013-09-21 17:12:00,
2013-09-21 10:17:00,62.1,5.0,29.54,SSW,203,0.0,1.3,1,0.00,,,0.00,WUHU216HW,2013-09-21 17:17:00,
2013-09-21 10:22:00,61.9,4.9,29.54,ESE,113,0.4,1.1,1,0.00,,,0.00,WUHU216HW,2013-09-21 17:22:00,
2013-09-21 10:27:00,61.6,4.5,29.54,SE,135,0.4,1.3,1,0.00,,,0.00,WUHU216HW,2013-09-21 17:27:00,
2013-09-21 10:29:00,61.9,4.9,29.54,ENE,68,0.4,0.4,1,0.00,,,0.00,WUHU216HW,2013-09-21 17:29:00,
2013-09-21 10:32:00,61.9,4.9,29.54,ENE,68,0.4,1.3,1,0.00,,,0.00,WUHU216HW,2013-09-21 17:32:00,
2013-09-21 10:37:00,61.9,4.9,29.54,ENE,68,0.4,0.9,1,0.00,,,0.00,WUHU216HW,2013-09-21 17:37:00,
2013-09-21 10:59:00,62.3,5.1,29.54,SE,135,0.2,0.2,1,0.00,,,0.00,WUHU216HW,2013-09-21 17:59:00,
2013-09-21 11:04:00,62.5,5.2,29.55,ESE,113,0.9,1.1,1,0.00,,,0.00,WUHU216HW,2013-09-21 18:04:00,
2013-09-21 11:09:00,62.6,5.4,29.54,SSE,158,3.1,3.1,1,0.00,,,0.00,WUHU216HW,2013-09-21 18:09:00,
2013-09-21 11:14:00,62.5,5.2,29.54,South,180,2.2,3.4,1,0.00,,,0.00,WUHU216HW,2013-09-21 18:14:00,
2013-09-21 11:19:00,63.0,5.7,29.54,SSE,158,2.5,3.4,1,0.00,,,0.00,WUHU216HW,2013-09-21 18:19:00,
2013-09-21 11:24:00,63.4,6.0,29.54,SSE,158,1.3,2.9,1,0.00,,,0.00,WUHU216HW,2013-09-21 18:24:00,
2013-09-21 11:25:00,63.4,6.0,29.54,SSE,158,1.3,1.3,1,0.00,,,0.00,WUHU216HW,2013-09-21 18:25:00,
2013-09-21 11:29:00,63.4,6.0,29.54,SSE,158,1.3,2.9,1,0.00,,,0.00,WUHU216HW,2013-09-21 18:29:00,
2013-09-21 11:34:00,63.4,6.0,29.54,SSE,158,1.3,1.3,1,0.00,,,0.00,WUHU216HW,2013-09-21 18:34:00,
2013-09-21 11:55:00,65.3,7.4,29.54,SSW,203,2.2,2.2,1,0.00,,,0.00,WUHU216HW,2013-09-21 18:55:00,
2013-09-21 12:00:00,65.3,7.4,29.54,SSE,158,2.9,3.4,1,0.00,,,0.00,WUHU216HW,2013-09-21 19:00:00,
2013-09-21 12:05:00,67.9,9.4,29.54,SE,135,2.7,3.4,1,0.00,,,0.00,WUHU216HW,2013-09-21 19:05:00,
2013-09-21 12:10:00,68.6,9.9,29.54,SE,135,1.1,2.7,1,0.00,,,0.00,WUHU216HW,2013-09-21 19:10:00,
2013-09-21 12:15:00,67.5,9.1,29.54,SE,135,2.5,2.7,1,0.00,,,0.00,WUHU216HW,2013-09-21 19:15:00,
2013-09-21 12:20:00,66.4,8.3,29.54,SSE,158,0.0,2.5,1,0.00,,,0.00,WUHU216HW,2013-09-21 19:20:00,
2013-09-21 12:25:00,65.5,7.6,29.54,SSE,158,0.2,2.5,1,0.00,,,0.00,WUHU216HW,2013-09-21 19:25:00,
2013-09-21 12:30:00,65.0,7.1,29.54,SE,135,1.1,1.1,1,0.00,,,0.00,WUHU216HW,2013-09-21 19:30:00,
2013-09-21 12:35:00,65.2,7.2,29.54,ESE,113,1.3,2.0,1,0.00,,,0.00,WUHU216HW,2013-09-21 19:35:00,
2013-09-21 12:40:00,66.8,8.6,29.54,NE,45,0.2,2.0,1,0.00,,,0.00,WUHU216HW,2013-09-21 19:40:00,
2013-09-21 12:45:00,68.9,10.2,29.53,SSW,203,0.7,0.9,1,0.00,,,0.00,WUHU216HW,2013-09-21 19:45:00,
2013-09-21 12:50:00,69.3,10.5,29.53,SSE,158,1.1,1.1,1,0.00,,,0.00,WUHU216HW,2013-09-21 19:50:00,
2013-09-21 12:55:00,68.6,9.9,29.53,NE,45,1.8,1.8,1,0.00,,,0.00,WUHU216HW,2013-09-21 19:55:00,
2013-09-21 13:00:00,67.5,9.1,29.54,South,180,1.3,5.1,1,0.00,,,0.00,WUHU216HW,2013-09-21 20:00:00,
2013-09-21 13:05:00,66.4,8.3,29.54,SSE,158,0.0,5.1,1,0.00,,,0.00,WUHU216HW,2013-09-21 20:05:00,
2013-09-21 13:10:00,67.5,9.1,29.54,SE,135,1.8,1.8,1,0.00,,,0.00,WUHU216HW,2013-09-21 20:10:00,
2013-09-21 13:15:00,70.2,11.1,29.54,SE,135,2.9,2.9,1,0.00,,,0.00,WUHU216HW,2013-09-21 20:15:00,
2013-09-21 13:20:00,72.0,12.5,29.53,SSE,158,1.8,2.9,1,0.00,,,0.00,WUHU216HW,2013-09-21 20:20:00,
2013-09-21 13:25:00,74.2,14.2,29.53,ESE,113,1.1,2.9,1,0.00,,,0.00,WUHU216HW,2013-09-21 20:25:00,
2013-09-21 13:30:00,74.9,14.7,29.53,SSE,158,3.4,3.4,1,0.00,,,0.00,WUHU216HW,2013-09-21 20:30:00,
2013-09-21 13:35:00,73.6,13.8,29.53,WSW,248,1.6,3.4,1,0.00,,,0.00,WUHU216HW,2013-09-21 20:35:00,
2013-09-21 13:40:00,75.2,14.9,29.53,SE,135,3.4,4.9,1,0.00,,,0.00,WUHU216HW,2013-09-21 20:40:00,
2013-09-21 13:45:00,75.4,15.1,29.52,SE,135,3.4,4.9,1,0.00,,,0.00,WUHU216HW,2013-09-21 20:45:00,
2013-09-21 13:50:00,76.1,15.7,29.52,SW,225,2.5,3.4,1,0.00,,,0.00,WUHU216HW,2013-09-21 20:50:00,
2013-09-21 13:55:00,76.1,15.7,29.52,SW,225,2.5,2.5,1,0.00,,,0.00,WUHU216HW,2013-09-21 20:55:00,
2013-09-21 14:00:00,75.8,15.4,29.52,WNW,293,2.0,3.4,1,0.00,,,0.00,WUHU216HW,2013-09-21 21:00:00,
2013-09-21 14:05:00,76.0,15.5,29.52,NNE,23,1.8,3.4,6,0.00,,,0.00,WUHU216HW,2013-09-21 21:05:00,
2013-09-21 14:10:00,74.5,27.6,29.52,SE,135,1.1,2.7,18,0.00,,,0.00,WUHU216HW,2013-09-21 21:10:00,
2013-09-21 14:15:00,73.8,18.9,29.52,SSW,203,1.3,2.7,13,0.00,,,0.00,WUHU216HW,2013-09-21 21:15:00,
2013-09-21 14:20:00,72.7,19.6,29.51,WNW,293,0.2,2.7,14,0.00,,,0.00,WUHU216HW,2013-09-21 21:20:00,
2013-09-21 14:25:00,72.7,16.4,29.52,South,180,0.4,2.7,12,0.00,,,0.00,WUHU216HW,2013-09-21 21:25:00,
2013-09-21 14:30:00,74.0,33.8,29.51,West,270,1.3,2.9,23,0.00,,,0.00,WUHU216HW,2013-09-21 21:30:00,
2013-09-21 14:35:00,72.4,-19.8,29.51,South,180,3.1,3.1,1,0.00,,,0.00,WUHU216HW,2013-09-21 21:35:00,
2013-09-21 14:40:00,72.7,24.5,29.51,North,0,2.5,3.1,17,0.00,,,0.00,WUHU216HW,2013-09-21 21:40:00,
2013-09-21 14:45:00,71.8,27.3,29.52,NNW,338,4.7,4.7,19,0.00,,,0.00,WUHU216HW,2013-09-21 21:45:00,
2013-09-21 14:50:00,72.4,21.0,29.51,North,0,4.5,4.7,15,0.00,,,0.00,WUHU216HW,2013-09-21 21:50:00,
2013-09-21 14:55:00,72.2,38.0,29.51,North,0,0.2,4.7,29,0.00,,,0.00,WUHU216HW,2013-09-21 21:55:00,
2013-09-21 15:00:00,71.6,35.7,29.51,NNW,338,1.8,4.5,27,0.00,,,0.00,WUHU216HW,2013-09-21 22:00:00,
2013-09-21 15:05:00,71.3,22.7,29.51,ESE,113,0.4,1.8,16,0.00,,,0.00,WUHU216HW,2013-09-21 22:05:00,
2013-09-21 15:10:00,72.7,31.8,29.51,NNW,338,1.3,1.3,22,0.00,,,0.00,WUHU216HW,2013-09-21 22:10:00,
2013-09-21 15:15:00,74.2,38.8,29.51,North,0,4.0,4.0,28,0.00,,,0.00,WUHU216HW,2013-09-21 22:15:00,
2013-09-21 15:20:00,74.0,43.7,29.50,NNW,338,1.8,4.0,34,0.00,,,0.00,WUHU216HW,2013-09-21 22:20:00,
2013-09-21 15:25:00,72.7,43.3,29.50,NNW,338,0.4,4.5,35,0.00,,,0.00,WUHU216HW,2013-09-21 22:25:00,
2013-09-21 15:30:00,73.1,45.1,29.50,North,0,2.2,4.5,37,0.00,,,0.00,WUHU216HW,2013-09-21 22:30:00,
2013-09-21 15:35:00,73.4,46.2,29.50,NW,315,2.0,2.7,38,0.00,,,0.00,WUHU216HW,2013-09-21 22:35:00,
2013-09-21 15:39:00,73.4,47.0,29.50,NNW,338,1.6,1.6,39,0.00,,,0.00,WUHU216HW,2013-09-21 22:39:00,
2013-09-21 15:40:00,73.4,47.0,29.50,NNW,338,1.6,2.7,39,0.00,,,0.00,WUHU216HW,2013-09-21 22:40:00,
2013-09-21 15:45:00,73.4,47.0,29.50,NNW,338,1.6,2.0,39,0.00,,,0.00,WUHU216HW,2013-09-21 22:45:00,
2013-09-21 16:00:00,75.1,49.1,29.50,WSW,248,1.8,1.8,40,0.00,,,0.00,WUHU216HW,2013-09-21 23:00:00,
2013-09-21 16:05:00,76.0,49.2,29.50,NW,315,2.9,2.9,39,0.00,,,0.00,WUHU216HW,2013-09-21 23:05:00,
2013-09-21 16:10:00,76.3,49.5,29.50,NW,315,2.5,2.9,39,0.00,,,0.00,WUHU216HW,2013-09-21 23:10:00,
2013-09-21 16:15:00,76.0,49.2,29.51,South,180,1.1,4.7,39,0.00,,,0.00,WUHU216HW,2013-09-21 23:15:00,
2013-09-21 16:20:00,76.1,49.4,29.51,South,180,0.7,4.7,39,0.00,,,0.00,WUHU216HW,2013-09-21 23:20:00,
2013-09-21 16:25:00,74.9,48.2,29.51,West,270,1.1,2.5,39,0.00,,,0.00,WUHU216HW,2013-09-21 23:25:00,
2013-09-21 16:30:00,73.8,48.1,29.50,West,270,0.0,2.5,40,0.00,,,0.00,WUHU216HW,2013-09-21 23:30:00,
2013-09-21 16:35:00,72.9,47.8,29.50,WSW,248,2.5,2.5,41,0.00,,,0.00,WUHU216HW,2013-09-21 23:35:00,
2013-09-21 16:40:00,72.2,45.8,29.50,NNW,338,1.1,2.5,39,0.00,,,0.00,WUHU216HW,2013-09-21 23:40:00,
2013-09-21 16:45:00,71.8,47.4,29.50,SW,225,3.1,3.1,42,0.00,,,0.00,WUHU216HW,2013-09-21 23:45:00,
2013-09-21 16:50:00,71.8,47.4,29.50,SW,225,3.1,3.1,42,0.00,,,0.00,WUHU216HW,2013-09-21 23:50:00,
2013-09-21 17:00:00,70.9,46.6,29.50,NE,45,0.7,0.7,42,0.00,,,0.00,WUHU216HW,2013-09-22 00:00:00,
2013-09-21 17:05:00,70.9,46.6,29.50,North,0,1.1,1.1,42,0.00,,,0.00,WUHU216HW,2013-09-22 00:05:00,
2013-09-21 17:10:00,71.6,46.7,29.50,NNW,338,2.7,2.7,41,0.00,,,0.00,WUHU216HW,2013-09-22 00:10:00,
2013-09-21 17:15:00,72.0,47.0,29.50,NNW,338,3.1,3.1,41,0.00,,,0.00,WUHU216HW,2013-09-22 00:15:00,
2013-09-21 17:20:00,73.1,48.0,29.50,South,180,1.6,3.1,41,0.00,,,0.00,WUHU216HW,2013-09-22 00:20:00,
2013-09-21 17:25:00,72.5,48.1,29.50,SSW,203,1.6,3.4,42,0.00,,,0.00,WUHU216HW,2013-09-22 00:25:00,
2013-09-21 17:30:00,72.7,47.6,29.50,SSW,203,0.9,3.4,41,0.00,,,0.00,WUHU216HW,2013-09-22 00:30:00,
2013-09-21 17:35:00,72.4,47.9,29.50,NNW,338,1.1,1.6,42,0.00,,,0.00,WUHU216HW,2013-09-22 00:35:00,
2013-09-21 17:36:00,71.3,47.5,29.50,North,0,2.7,2.7,43,0.00,,,0.00,WUHU216HW,2013-09-22 00:36:00,
2013-09-21 17:40:00,71.3,47.5,29.50,North,0,2.7,2.7,43,0.00,,,0.00,WUHU216HW,2013-09-22 00:40:00,
2013-09-21 17:45:00,71.3,47.5,29.50,North,0,2.7,2.7,43,0.00,,,0.00,WUHU216HW,2013-09-22 00:45:00,
2013-09-21 18:00:00,68.0,17.6,29.50,SE,135,1.1,1.1,15,0.00,,,0.00,WUHU216HW,2013-09-22 01:00:00,
2013-09-21 18:05:00,67.0,8.6,29.50,SE,135,0.4,1.1,5,0.00,,,0.00,WUHU216HW,2013-09-22 01:05:00,
2013-09-21 18:10:00,67.0,8.6,29.50,ENE,68,0.4,1.1,8,0.00,,,0.00,WUHU216HW,2013-09-22 01:10:00,
2013-09-21 18:15:00,67.0,8.6,29.51,ENE,68,0.0,0.4,8,0.00,,,0.00,WUHU216HW,2013-09-22 01:15:00,
2013-09-21 18:20:00,66.2,8.1,29.51,NNW,338,1.8,1.8,1,0.00,,,0.00,WUHU216HW,2013-09-22 01:20:00,
2013-09-21 18:25:00,65.3,7.4,29.51,North,0,0.0,1.8,1,0.00,,,0.00,WUHU216HW,2013-09-22 01:25:00,
2013-09-21 18:30:00,64.3,6.6,29.51,South,180,0.9,0.9,1,0.00,,,0.00,WUHU216HW,2013-09-22 01:30:00,
2013-09-21 18:35:00,63.7,6.1,29.52,NNE,23,1.3,1.3,1,0.00,,,0.00,WUHU216HW,2013-09-22 01:35:00,
2013-09-21 18:37:00,63.7,6.1,29.51,ENE,68,0.0,0.0,1,0.00,,,0.00,WUHU216HW,2013-09-22 01:37:00,
2013-09-21 18:40:00,63.7,6.1,29.51,ENE,68,0.0,1.3,1,0.00,,,0.00,WUHU216HW,2013-09-22 01:40:00,
2013-09-21 18:45:00,63.7,6.1,29.51,ENE,68,0.0,1.3,1,0.00,,,0.00,WUHU216HW,2013-09-22 01:45:00,
2013-09-21 19:00:00,62.3,5.1,29.52,SSE,158,0.0,0.0,1,0.00,,,0.00,WUHU216HW,2013-09-22 02:00:00,
2013-09-21 19:05:00,61.6,4.5,29.52,South,180,0.4,0.4,1,0.00,,,0.00,WUHU216HW,2013-09-22 02:05:00,
2013-09-21 19:10:00,61.6,4.5,29.52,South,180,0.4,0.4,1,0.00,,,0.00,WUHU216HW,2013-09-22 02:10:00,
2013-09-21 19:15:00,60.8,4.0,29.53,SSE,158,0.4,1.3,1,0.00,,,0.00,WUHU216HW,2013-09-22 02:15:00,
2013-09-21 19:20:00,60.8,4.0,29.53,NW,315,1.1,1.3,1,0.00,,,0.00,WUHU216HW,2013-09-22 02:20:00,
2013-09-21 19:25:00,60.8,4.0,29.53,SW,225,0.0,1.1,1,0.00,,,0.00,WUHU216HW,2013-09-22 02:25:00,
2013-09-21 19:30:00,60.8,4.0,29.53,NE,45,1.1,1.1,1,0.00,,,0.00,WUHU216HW,2013-09-22 02:30:00,
2013-09-21 19:35:00,60.5,3.7,29.54,SE,135,0.0,1.1,1,0.00,,,0.00,WUHU216HW,2013-09-22 02:35:00,
2013-09-21 19:40:00,60.3,3.5,29.54,South,180,1.1,1.1,1,0.00,,,0.00,WUHU216HW,2013-09-22 02:40:00,
2013-09-21 19:45:00,60.1,3.4,29.54,SSW,203,5.1,5.1,1,0.00,,,0.00,WUHU216HW,2013-09-22 02:45:00,
2013-09-21 19:50:00,59.8,3.1,29.54,SSW,203,4.0,5.1,1,0.00,,,0.00,WUHU216HW,2013-09-22 02:50:00,
2013-09-21 19:55:00,59.4,2.8,29.54,SW,225,1.8,5.1,1,0.00,,,0.00,WUHU216HW,2013-09-22 02:55:00,
2013-09-21 20:00:00,59.6,3.0,29.55,WNW,293,2.5,4.7,1,0.00,,,0.00,WUHU216HW,2013-09-22 03:00:00,
2013-09-21 20:05:00,59.6,3.0,29.55,SE,135,4.9,4.9,1,0.00,,,0.00,WUHU216HW,2013-09-22 03:05:00,
2013-09-21 20:08:00,59.6,3.0,29.54,ENE,68,3.4,3.4,1,0.00,,,0.00,WUHU216HW,2013-09-22 03:08:00,
2013-09-21 20:10:00,59.6,3.0,29.54,ENE,68,3.4,4.9,1,0.00,,,0.00,WUHU216HW,2013-09-22 03:10:00,
2013-09-21 20:15:00,59.6,3.0,29.54,ENE,68,3.4,3.4,1,0.00,,,0.00,WUHU216HW,2013-09-22 03:15:00,
2013-09-21 20:39:00,58.7,2.3,29.54,SSE,158,0.0,0.0,1,0.00,,,0.00,WUHU216HW,2013-09-22 03:39:00,
2013-09-21 20:44:00,58.3,2.0,29.54,SSE,158,0.0,0.4,1,0.00,,,0.00,WUHU216HW,2013-09-22 03:44:00,
2013-09-21 20:49:00,58.1,1.8,29.54,South,180,0.0,0.4,1,0.00,,,0.00,WUHU216HW,2013-09-22 03:49:00,
2013-09-21 20:54:00,58.0,1.6,29.54,SE,135,0.4,0.4,1,0.00,,,0.00,WUHU216HW,2013-09-22 03:54:00,
2013-09-21 20:59:00,57.6,1.4,29.54,SE,135,0.0,0.4,1,0.00,,,0.00,WUHU216HW,2013-09-22 03:59:00,
2013-09-21 21:01:00,57.6,1.4,29.54,SE,135,0.0,0.4,1,0.00,,,0.00,WUHU216HW,2013-09-22 04:01:00,
2013-09-21 21:06:00,57.4,1.3,29.54,SE,135,0.0,0.0,1,0.00,,,0.00,WUHU216HW,2013-09-22 04:06:00,
2013-09-21 21:11:00,57.2,1.1,29.54,SE,135,0.0,0.0,1,0.00,,,0.00,WUHU216HW,2013-09-22 04:11:00,
2013-09-21 21:16:00,57.2,1.1,29.54,SE,135,0.0,0.0,1,0.00,,,0.00,WUHU216HW,2013-09-22 04:16:00,
2013-09-21 21:21:00,57.2,1.1,29.54,SSE,158,0.0,0.0,1,0.00,,,0.00,WUHU216HW,2013-09-22 04:21:00,
2013-09-21 21:26:00,57.4,1.3,29.54,SSE,158,0.0,0.0,1,0.00,,,0.00,WUHU216HW,2013-09-22 04:26:00,
2013-09-21 21:31:00,57.2,1.1,29.54,SSE,158,0.0,0.0,1,0.00,,,0.00,WUHU216HW,2013-09-22 04:31:00,
2013-09-21 21:36:00,57.2,1.1,29.54,SSE,158,0.4,0.4,1,0.00,,,0.00,WUHU216HW,2013-09-22 04:36:00,
2013-09-21 21:41:00,57.1,1.0,29.54,SSE,158,0.0,0.4,1,0.00,,,0.00,WUHU216HW,2013-09-22 04:41:00,
2013-09-21 21:46:00,57.1,1.0,29.54,SSE,158,0.0,0.4,1,0.00,,,0.00,WUHU216HW,2013-09-22 04:46:00,
2013-09-21 21:51:00,56.9,0.8,29.54,SSE,158,0.0,0.0,1,0.00,,,0.00,WUHU216HW,2013-09-22 04:51:00,
2013-09-21 21:56:00,57.1,1.0,29.54,SSE,158,0.0,0.0,1,0.00,,,0.00,WUHU216HW,2013-09-22 04:56:00,
2013-09-21 22:01:00,57.1,1.0,29.54,SSE,158,0.0,0.0,1,0.00,,,0.00,WUHU216HW,2013-09-22 05:01:00,
2013-09-21 22:06:00,57.2,1.1,29.54,SSE,158,0.0,0.0,1,0.00,,,0.00,WUHU216HW,2013-09-22 05:06:00,
2013-09-21 22:11:00,57.2,1.1,29.54,SSE,158,0.0,0.0,1,0.00,,,0.00,WUHU216HW,2013-09-22 05:11:00,
2013-09-21 22:16:00,57.2,1.1,29.54,SSE,158,0.2,0.2,1,0.00,,,0.00,WUHU216HW,2013-09-22 05:16:00,
2013-09-21 22:21:00,57.2,1.1,29.54,SSE,158,0.0,0.2,1,0.00,,,0.00,WUHU216HW,2013-09-22 05:21:00,
2013-09-21 22:26:00,57.2,1.1,29.54,SSW,203,0.4,0.4,1,0.00,,,0.00,WUHU216HW,2013-09-22 05:26:00,
2013-09-21 22:31:00,57.2,1.1,29.54,SSW,203,0.0,0.4,1,0.00,,,0.00,WUHU216HW,2013-09-22 05:31:00,
2013-09-21 22:36:00,57.2,1.1,29.54,SSW,203,0.0,0.7,1,0.00,,,0.00,WUHU216HW,2013-09-22 05:36:00,
2013-09-21 22:41:00,57.2,1.1,29.54,South,180,0.0,0.7,1,0.00,,,0.00,WUHU216HW,2013-09-22 05:41:00,
2013-09-21 22:46:00,57.1,1.0,29.54,SSE,158,0.0,0.2,1,0.00,,,0.00,WUHU216HW,2013-09-22 05:46:00,
2013-09-21 22:51:00,57.1,1.0,29.54,SSE,158,0.0,0.2,1,0.00,,,0.00,WUHU216HW,2013-09-22 05:51:00,
2013-09-21 22:56:00,57.1,1.0,29.54,East,90,0.4,1.8,1,0.00,,,0.00,WUHU216HW,2013-09-22 05:56:00,
2013-09-21 23:01:00,57.1,1.0,29.54,East,90,0.0,1.8,1,0.00,,,0.00,WUHU216HW,2013-09-22 06:01:00,
2013-09-21 23:06:00,57.1,1.0,29.54,NE,45,0.0,0.4,1,0.00,,,0.00,WUHU216HW,2013-09-22 06:06:00,
2013-09-21 23:11:00,57.1,1.0,29.54,NE,45,0.0,0.4,1,0.00,,,0.00,WUHU216HW,2013-09-22 06:11:00,
2013-09-21 23:16:00,57.1,1.0,29.54,SSW,203,0.0,0.9,1,0.00,,,0.00,WUHU216HW,2013-09-22 06:16:00,
2013-09-21 23:21:00,57.2,1.1,29.54,SW,225,1.1,1.1,1,0.00,,,0.00,WUHU216HW,2013-09-22 06:21:00,
2013-09-21 23:26:00,57.2,1.1,29.54,SSE,158,0.0,1.1,1,0.00,,,0.00,WUHU216HW,2013-09-22 06:26:00,
2013-09-21 23:31:00,57.2,1.1,29.54,SSE,158,0.0,1.1,1,0.00,,,0.00,WUHU216HW,2013-09-22 06:31:00,
2013-09-21 23:36:00,57.2,1.1,29.54,ESE,113,0.4,0.4,1,0.00,,,0.00,WUHU216HW,2013-09-22 06:36:00,
2013-09-21 23:41:00,57.1,1.0,29.54,South,180,0.7,0.7,1,0.00,,,0.00,WUHU216HW,2013-09-22 06:41:00,
2013-09-21 23:46:00,57.2,1.1,29.54,SE,135,0.0,0.7,1,0.00,,,0.00,WUHU216HW,2013-09-22 06:46:00,
2013-09-21 23:51:00,57.1,1.0,29.54,SE,135,0.0,0.4,1,0.00,,,0.00,WUHU216HW,2013-09-22 06:51:00,
2013-09-21 23:56:00,57.1,1.0,29.54,SE,135,0.0,0.4,1,0.00,,,0.00,WUHU216HW,2013-09-22 06:56:00,